Preview of NWS' New Version of Forecast
This preview is not operational and should not be used for support decisions.

Regional Weather Roundup (RWR)

Issued by Gray - Portland, ME (GYX)

                            
000
ASUS41 KGYX 201310
RWRGYX
WEATHER ROUNDUP FOR MAINE AND NEW HAMPSHIRE
NATIONAL WEATHER SERVICE GRAY ME
800 AM EST SUN JAN 20 2019

MEZ002-005-006-010-012-015-018-020-021-024-026-027-029-201400-
MAINE
  
CITY           SKY/WX    TMP DP  RH WIND       PRES   REMARKS
PORTLAND       SNOW       8   4  83 N13G23    29.78F VSB 1/2 WCI  -8  
SANFORD        SNOW       8   4  83 NE21      29.72F VSB 1/2 WCI -12  
BAR HARBOR     SNOW      14  11  87 NE14G23   29.85F VSB 1/4 WCI  -1  
WISCASSET      SNOW       5   2  87 N7        29.79F VSB 1/2          
ROCKLAND       SNOW      16  13  88 NE22G31   29.79F VSB 1/4 WCI  -2  
FRYEBURG       LGT SNOW  10   6  84 N10       29.80F FOG     WCI  -4  
LEWISTONAUBURN LGT SNOW   4   0  83 N17       29.79F VSB 1   WCI -16  
AUGUSTA        SNOW       1  -4  79 N16G31    29.82F VSB 1/2 WCI -19  
WATERVILLE     SNOW       0  -4  83 MISG      29.82F VSB 1/2          
BANGOR         HVY SNOW   2  -3  80 NE16      29.90F VSB 1/4 WCI -18  
GREENVILLE       N/A      0  -7  72 NE10      29.80F WCI -16          
MILLINOCKET    HVY SNOW  -2  -8  76 NE10      30.05F VSB 1/4 WCI -19  
HOULTON        SNOW      -2  -6  83 NE10      30.09F VSB 1/4 WCI -19  
PRESQUE ISLE   LGT SNOW  -7 -12  79 NE8       30.16F VSB 3/4          
FRENCHVILLE    LGT SNOW  -8 -16  67 NE7       30.13F                  
CARIBOU        LGT SNOW  -7 -13  75 NE10      30.15F VSB 3/4 WCI -25  
$$

NHZ002-005-008-009-011-012-014-201400-
NEW HAMPSHIRE
  
CITY           SKY/WX    TMP DP  RH WIND       PRES   REMARKS
PORTSMOUTH     LGTSLEET  10   6  82 N15G23    29.68F VSB 1/2 WCI  -6  
ROCHESTER      SNOW      10   7  87 N15G24    29.68F VSB 1/2 WCI  -7  
NASHUA         LGT SNOW  14  12  92 VRB7      29.66F VSB 1            
MANCHESTER     LGTSLEET  15  10  80 N10       29.65F VSB 1   WCI   2  
CONCORD        MIX PCPN  12   8  84 VRB5      29.69F VSB 3/4          
LACONIA        LGT SNOW  10   6  84 NE20G25   29.69F VSB 1   WCI  -9  
PLYMOUTH       LGT SNOW  18  14  86 SE6       29.68F VSB 1            
BERLIN         SNOW       6   2  83 NW3       29.74F VSB 1/4          
WHITEFIELD     SNOW      16  14  92 SE5       29.63F VSB 1/2          
JAFFREY        LGT SNOW  12  10  92 VRB6      29.54F FOG              
KEENE          LGT SNOW  16  10  77 NE16G30   29.58F WCI   1          
LEBANON        HVY SNOW  16  11  80 CALM      29.65F VSB 1/4          
MT WASHINGTON  HVY SNOW   5   5 100 SE55G61     N/A  VSB 1/16WCI -25  
$$

VTZ005-007-008-201400-
VERMONT
  
CITY           SKY/WX    TMP DP  RH WIND       PRES   REMARKS
ST JOHNSBURY     N/A     12  10  92 MISG      29.65F                  
MONTPELIER     SNOW       8   6  92 CALM      29.66F VSB 1/2          
BURLINGTON     HVY SNOW  -2  -7  79 N5        29.71F VSB 1/4          
$$

MAZ007-012-024-CTZ003-RIZ002-NYZ038-NYZ072-201400-
SOUTHERN NEW ENGLAND AND NY
  
CITY           SKY/WX    TMP DP  RH WIND       PRES   REMARKS
BOSTON         RAIN      36  33  89 N22       29.56F FOG              
WORCESTER      MIX PCPN  15  13  91 NE16G25   29.50F VSB 3/4 WCI  -1  
NANTUCKET      LGT RAIN  48  48 100 S16       29.53F FOG              
PROVIDENCE     RAIN      35  34  96 N10       29.52F FOG              
HARTFORD       SLEET     22  20  92 N13       29.52F FOG     WCI  10  
ALBANY         LGTSLEET  14   9  80 CALM      29.50F VSB 1/2          
NEW YORK CITY  LGT RAIN  37  35  92 NE10      29.37F                  
$$

ANZ081-ANZ082-ANZ150-NHZ014-MEZ023>029-201400-
COASTAL MARINE OBSERVATIONS
  
STATION/POSITION TIME  TEMP    WIND        PRES    WAVE
                       AIR SEA DIR/SP/G            HT/PER
                 (UTC) (F)     (DEG/KT/KT) (MB)    (FT/S)
MOUNT DESERT ROC 1300   30      60/ 43/ 50 1006.6F
MATINICUS ROCK   1300   31      80/ 43/ 47 1005.0F
ISLE OF SHOALS   1300           20/ 32/ 36 1003.4F
JEFFREYS LEDGE   1238      43                N/A    13/ 8
CASHES LEDGE BUO 1250   36 40              1002.8F  12/ 8
$$

.............KEY..............
   WCI - WIND CHILL
   TC  - TEMPERATURE IN CELSIUS
   VSB - VISIBILITY IN MILES
   HX  - HEAT INDEX
   FAIR- INDICATES FEW OR NO CLOUDS BELOW 12,000 FT, WITH NO 
         SIGNIFICANT WEATHER AND/OR OBSTRUCTIONS TO VISIBILITY.